Current weather by "City, St" or "zip code"  
 

Current Conditions: Lafayette, Purdue University Airport, IN

Fair


66.0 F

Last Updated on Sep 18 2020, 12:54 pm EDT
Humidity: 36%
Wind Speed: NE 19.6 G 26.5 mph
Barometer 30.32 in
Dewpoint: 37.9 F
Visibility: 10.00 mi
Precip: --
Heat Index: NA
Wind Chill: NA
Current conditions at:

Lafayette, Purdue University Airport, IN (KLAF)

Lat: 40.4125 Lon: 86.9475

Local Radar Image active severe weather and emergency alerts image image weather storm and storm spotter reports image weather observation monitoring service image
Local
Radar
Active
Alerts
Storm Reports Obs
Monitoring

Sign-up For Email & Text Message Weather Alert Notification Services



Advertise Here

Observation History for Lafayette, Purdue University Airport, IN


Time Wind
(mph)
Vis
(mi)
Weather Precip (in) Temperature (F) Relative
Humidity
Wind
Chill
(F)
Heat
Index
(F)
Pressure
Air Dwpt altimeter
(in)
sea level
(mb)
Rmks
12:54 pm EDT NE 19.6 G 26.5 10.00 Fair -- 66.0 37.9 36% NA NA 30.32 1026.7
11:54 am EDT E 15.0 10.00 Fair -- 63.0 42.1 47% 61 NA 30.33 1026.9
10:54 am EDT NE 13.8 10.00 Fair -- 60.0 43.0 53% 58 NA 30.33 1026.8
9:54 am EDT E 16.1 G 24.2 10.00 Fair -- 57.0 43.0 60% 53 NA 30.30 1025.8
8:54 am EDT NE 10.4 10.00 Fair -- 53.0 46.0 77% 50 NA 30.28 1025.1
7:54 am EDT NE 10.4 10.00 Fair -- 52.0 45.0 77% 48 NA 30.25 1024.2
6:54 am EDT NE 6.9 10.00 Fair -- 52.0 46.0 80% 50 NA 30.22 1023.0
5:54 am EDT NE 9.2 10.00 Fair -- 53.0 46.0 77% 50 NA 30.20 1022.2
4:54 am EDT NE 8.1 10.00 Fair -- 55.0 46.9 74% 53 NA 30.18 1021.6
3:54 am EDT NE 6.9 10.00 Fair -- 56.0 46.9 72% 54 NA 30.17 1021.2
2:54 am EDT NE 6.9 10.00 Fair -- 56.0 48.9 77% 54 NA 30.16 1021.2
1:54 am EDT N 8.1 10.00 Partly Cloudy -- 57.0 50.0 78% 55 NA 30.16 1021.0
12:54 am EDT NE 9.2 10.00 Fair -- 58.0 50.0 75% 56 NA 30.15 1020.6
11:54 pm EDT NE 9.2 10.00 A Few Clouds -- 59.0 48.9 69% 57 NA 30.14 1020.4
10:54 pm EDT N 10.4 10.00 Fair -- 61.0 48.9 65% 60 NA 30.13 1019.9
9:54 pm EDT N 11.5 G 23.0 10.00 Fair -- 62.0 48.9 62% 61 NA 30.11 1019.5
8:54 pm EDT N 13.8 10.00 Fair -- 65.0 51.1 61% NA NA 30.09 1018.7
7:54 pm EDT N 9.2 10.00 Overcast -- 72.0 55.0 55% NA NA 30.06 1017.7
6:54 pm EDT NE 9.2 10.00 Mostly Cloudy -- 73.0 57.0 57% NA NA 30.05 1017.3
5:54 pm EDT NE 11.5 10.00 Partly Cloudy -- 75.0 57.0 54% NA NA 30.04 1016.8
4:54 pm EDT NE 11.5 10.00 Overcast -- 75.0 57.9 55% NA NA 30.04 1016.9
3:54 pm EDT NE 13.8 G 18.4 10.00 Mostly Cloudy -- 74.0 59.0 60% NA NA 30.05 1017.4
2:54 pm EDT NE 12.7 G 21.9 10.00 Overcast -- 74.0 59.0 60% NA NA 30.06 1017.5
1:54 pm EDT NE 11.5 10.00 Overcast -- 75.0 60.1 60% NA NA 30.07 1018.0

Regional Weather Observation


Lafayette, Purdue University Airport, IN (KLAF)

Fair
66.0 F

Danville, Vermilion County Airport, IL (KDNV)

Fair
64.0 F

Logansport/Cass County Airport, IN (KGGP)

Fair
63.0 F

Grissom Air Force Base / Peru, IN (KGUS)

Fair
61.0 F

Kokomo, Kokomo Municipal Airport, IN (KOKK)

Fair
62.0 F

INDIANAPOLIS, IN (KTYQ)

Fair
61.0 F